Regional Weather Roundup
Issued by NWS

Home | Current Version | Previous Version | Text Only | Print | Product List | Glossary Off
Versions: 1 2 3 4 5 6 7 8 9 10 11 12 13 14 15 16 17 18 19 20 21 22 23 24 25 26 27 28 29 30 31 32 33 34 35 36 37 38 39 40 41 42 43 44 45 46 47 48 49 50

000
ASUS43 KIND 250759
RWRIN

WEATHER ROUNDUP FOR INDIANA
NATIONAL WEATHER SERVICE INDIANAPOLIS IN
300 AM EST THU DEC 25 2014

NOTE: "FAIR" INDICATES FEW OR NO CLOUDS BELOW 12,000 FEET WITH NO
SIGNIFICANT WEATHER AND/OR OBSTRUCTIONS TO VISIBILITY.

* - STATION DOES NOT REPORT WEATHER SUCH AS PRECIPITATION OR FOG.

+ - STATION NOT QUALITY CONTROLLED BY THE NATIONAL WEATHER SERVICE.
    USE DATA WITH CAUTION...ESPECIALLY DEWPOINT AND RELATIVE
    HUMIDITY OBSERVATIONS.

INZ001>003-010>013-019-020-250900-
NORTHWEST INDIANA

CITY           SKY/WX    TMP DP  RH WIND       PRES   REMARKS
VALPARAISO     NOT AVBL

$$

LMZ046-743>745-250900-
SOUTHERN LAKE MICHIGAN

STATION/POSITION TIME  TEMP WIND        PRES
                       AIR  DIR/SP/G
                 (UTC) (F)  (DEG/KT/KT) (MB)
MICHIGAN CITY    0700   37  240/ 24/ 28   N/A

$$

INZ004-005-014>016-021>024-250900-
NORTH CENTRAL INDIANA

CITY           SKY/WX    TMP DP  RH WIND       PRES   REMARKS
GOSHEN         CLOUDY    36  33  89 W16       29.68R
PERU/GRISSOM   CLOUDY    36  36 100 W17G23    29.73R
SOUTH BEND     CLOUDY    37  33  85 W17       29.69R

$$

INZ006>009-017-018-025>027-250900-
NORTHEAST INDIANA

CITY           SKY/WX    TMP DP  RH WIND       PRES   REMARKS
ANGOLA *+      CLOUDY    36  34  93 W9        29.65R
FORT WAYNE     LGT RAIN  36  33  89 W21       29.71R

$$

INZ028-029-035-036-043>045-051>053-250900-
WEST CENTRAL INDIANA

CITY           SKY/WX    TMP DP  RH WIND       PRES   REMARKS
GREENCASTLE +  CLOUDY    34  32  93 W10G20    29.83R WCI  26
LAFAYETTE      CLOUDY    36  33  89 W13       29.78R
TERRE HAUTE    CLOUDY    37  32  82 W13G20    29.87R

$$

INZ030>032-037>040-046>048-054>057-064-065-250900-
CENTRAL INDIANA

CITY           SKY/WX    TMP DP  RH WIND       PRES   REMARKS
INDIANAPOLIS   LGT RAIN  34  33  96 W15       29.81R WCI  24
-EAGLE CREEK   LGT RAIN  35  33  92 W7        29.80R WCI  29
KOKOMO *+      CLOUDY    36  34  93 W20       29.75R
MT COMFORT *+  CLOUDY    36  36 100 W15G23    29.80R
SHELBYVILLE    CLOUDY    38  34  85 W15       29.80R

$$

INZ033-034-041-042-049-050-058-059-250900-
EAST CENTRAL INDIANA

CITY           SKY/WX    TMP DP  RH WIND       PRES   REMARKS
MUNCIE         LGT RAIN  36  33  89 W13       29.76R

$$

INZ060-061-067>069-081>083-085>088-250900-
SOUTHWEST INDIANA

CITY           SKY/WX    TMP DP  RH WIND       PRES   REMARKS
EVANSVILLE     CLOUDY    40  34  79 W8        29.93R
HUNTINGBURG *+ CLOUDY    37  34  87 W13       29.92R

$$

INZ062-063-066-070>080-084-089>092-250900-
SOUTH CENTRAL AND SOUTHEAST INDIANA

CITY           SKY/WX    TMP DP  RH WIND       PRES   REMARKS
BLOOMINGTON    LGT RAIN  37  34  89 W9        29.85R
SEYMOUR +      CLOUDY    39  36  87 W12       29.86R

$$




USA.gov is the U.S. government's official web portal to all federal, state and local government web resources and services.